TimeCST,TemperatureF,Dew PointF,Humidity,Sea Level PressureIn,VisibilityMPH,Wind Direction,Wind SpeedMPH,Gust SpeedMPH,PrecipitationIn,Events,Conditions,WindDirDegrees,DateUTC
12:15 AM,55.4,55.4,100,30.06,4.0,NNW,5.8,-,N/A,,Clear,340,2012-11-05 06:15:00
12:35 AM,55.4,55.4,100,30.06,4.0,NNW,5.8,-,N/A,,Clear,340,2012-11-05 06:35:00
12:55 AM,55.4,55.4,100,30.05,5.0,NNW,5.8,-,N/A,,Clear,330,2012-11-05 06:55:00
1:15 AM,55.4,55.4,100,30.05,5.0,NNW,3.5,-,N/A,,Clear,330,2012-11-05 07:15:00
1:35 AM,55.4,55.4,100,30.05,5.0,NNW,3.5,-,N/A,,Clear,330,2012-11-05 07:35:00
1:55 AM,53.6,53.6,100,30.05,3.0,NNW,3.5,-,N/A,,Clear,330,2012-11-05 07:55:00
2:15 AM,53.6,53.6,100,30.04,1.8,Calm,Calm,-,N/A,,Mist,0,2012-11-05 08:15:00
2:35 AM,55.4,55.4,100,30.04,10.0,North,5.8,-,N/A,,Clear,10,2012-11-05 08:35:00
2:55 AM,55.4,55.4,100,30.04,10.0,Calm,Calm,-,N/A,,Clear,0,2012-11-05 08:55:00
3:15 AM,53.6,53.6,100,30.04,5.0,NNW,3.5,-,N/A,,Clear,330,2012-11-05 09:15:00
3:35 AM,53.6,53.6,100,30.05,5.0,NNW,5.8,-,N/A,,Scattered Clouds,340,2012-11-05 09:35:00
3:55 AM,53.6,53.6,100,30.05,7.0,North,9.2,-,N/A,,Mostly Cloudy,360,2012-11-05 09:55:00
4:15 AM,55.4,55.4,100,30.05,10.0,North,8.1,-,N/A,,Overcast,10,2012-11-05 10:15:00
4:35 AM,55.4,55.4,100,30.05,10.0,North,6.9,-,N/A,,Overcast,10,2012-11-05 10:35:00
4:55 AM,55.4,55.4,100,30.05,7.0,North,4.6,-,N/A,,Scattered Clouds,10,2012-11-05 10:55:00
5:35 AM,57.2,57.2,100,30.05,7.0,NNE,4.6,-,N/A,,Overcast,20,2012-11-05 11:35:00
5:55 AM,57.2,57.2,100,30.05,7.0,NNE,3.5,-,N/A,,Mostly Cloudy,20,2012-11-05 11:55:00
6:15 AM,57.2,57.2,100,30.05,7.0,NNE,5.8,-,N/A,,Scattered Clouds,20,2012-11-05 12:15:00
6:35 AM,57.2,57.2,100,30.06,7.0,North,5.8,-,N/A,,Mostly Cloudy,10,2012-11-05 12:35:00
6:55 AM,59.0,59.0,100,30.06,10.0,NNE,5.8,-,N/A,,Overcast,30,2012-11-05 12:55:00
7:15 AM,59.0,59.0,100,30.06,10.0,NNE,8.1,-,N/A,,Overcast,30,2012-11-05 13:15:00
7:35 AM,62.6,62.6,100,30.07,10.0,NNE,6.9,-,N/A,,Scattered Clouds,30,2012-11-05 13:35:00
7:55 AM,66.2,66.2,100,30.07,10.0,NE,8.1,-,N/A,,Mostly Cloudy,50,2012-11-05 13:55:00
8:15 AM,66.2,66.2,100,30.07,10.0,NE,6.9,-,N/A,,Mostly Cloudy,50,2012-11-05 14:15:00
8:35 AM,68.0,66.2,94,30.07,10.0,NE,6.9,-,N/A,,Scattered Clouds,50,2012-11-05 14:35:00
8:55 AM,68.0,68.0,100,30.07,10.0,East,8.1,-,N/A,,Scattered Clouds,90,2012-11-05 14:55:00
9:15 AM,69.8,68.0,94,30.07,10.0,East,5.8,-,N/A,,Scattered Clouds,90,2012-11-05 15:15:00
9:35 AM,69.8,68.0,94,30.07,10.0,East,6.9,-,N/A,,Scattered Clouds,90,2012-11-05 15:35:00
9:55 AM,71.6,68.0,88,30.07,10.0,East,5.8,-,N/A,,Clear,80,2012-11-05 15:55:00
10:15 AM,71.6,68.0,88,30.06,10.0,East,4.6,-,N/A,,Clear,80,2012-11-05 16:15:00
10:35 AM,71.6,66.2,83,30.05,10.0,ENE,3.5,-,N/A,,Clear,60,2012-11-05 16:35:00
10:55 AM,73.4,64.4,73,30.05,10.0,Calm,Calm,-,N/A,,Clear,0,2012-11-05 16:55:00
11:15 AM,73.4,64.4,73,30.04,10.0,Calm,Calm,-,N/A,,Scattered Clouds,0,2012-11-05 17:15:00
11:35 AM,75.2,66.2,73,30.03,10.0,ESE,4.6,-,N/A,,Scattered Clouds,110,2012-11-05 17:35:00
11:55 AM,73.4,64.4,73,30.02,10.0,East,5.8,-,N/A,,Scattered Clouds,90,2012-11-05 17:55:00
12:15 PM,73.4,64.4,73,30.01,10.0,Calm,Calm,-,N/A,,Scattered Clouds,0,2012-11-05 18:15:00
12:35 PM,75.2,64.4,69,30.00,10.0,South,3.5,-,N/A,,Mostly Cloudy,170,2012-11-05 18:35:00
12:55 PM,77.0,64.4,65,29.98,10.0,South,5.8,-,N/A,,Mostly Cloudy,180,2012-11-05 18:55:00
1:15 PM,77.0,62.6,61,29.98,10.0,SSW,5.8,-,N/A,,Scattered Clouds,200,2012-11-05 19:15:00
1:35 PM,77.0,62.6,61,29.97,10.0,South,4.6,-,N/A,,Scattered Clouds,180,2012-11-05 19:35:00
1:55 PM,77.0,64.4,65,29.97,10.0,SSW,5.8,-,N/A,,Scattered Clouds,200,2012-11-05 19:55:00
2:15 PM,77.0,62.6,61,29.96,10.0,South,6.9,-,N/A,,Mostly Cloudy,180,2012-11-05 20:15:00
2:35 PM,75.2,62.6,65,29.95,10.0,South,6.9,-,N/A,,Scattered Clouds,190,2012-11-05 20:35:00
2:55 PM,75.2,62.6,65,29.95,10.0,SSW,8.1,-,N/A,,Scattered Clouds,200,2012-11-05 20:55:00
3:15 PM,75.2,62.6,65,29.95,10.0,SSW,8.1,-,N/A,,Clear,200,2012-11-05 21:15:00
3:35 PM,75.2,62.6,65,29.95,10.0,South,6.9,-,N/A,,Clear,180,2012-11-05 21:35:00
3:55 PM,73.4,62.6,69,29.95,10.0,SSW,6.9,-,N/A,,Clear,210,2012-11-05 21:55:00
4:15 PM,73.4,64.4,73,29.95,10.0,South,5.8,-,N/A,,Clear,190,2012-11-05 22:15:00
4:35 PM,71.6,64.4,78,29.94,10.0,South,5.8,-,N/A,,Clear,190,2012-11-05 22:35:00
4:55 PM,71.6,64.4,78,29.95,10.0,SSW,4.6,-,N/A,,Clear,200,2012-11-05 22:55:00
5:15 PM,69.8,64.4,83,29.94,10.0,South,5.8,-,N/A,,Clear,180,2012-11-05 23:15:00
5:35 PM,69.8,66.2,88,29.94,10.0,South,5.8,-,N/A,,Clear,190,2012-11-05 23:35:00
5:55 PM,68.0,66.2,94,29.94,10.0,South,4.6,-,N/A,,Clear,190,2012-11-05 23:55:00
6:15 PM,68.0,68.0,100,29.95,10.0,South,5.8,-,N/A,,Clear,190,2012-11-06 00:15:00
6:35 PM,68.0,68.0,100,29.95,10.0,South,5.8,-,N/A,,Clear,190,2012-11-06 00:35:00
6:55 PM,69.8,68.0,94,29.94,10.0,South,4.6,-,N/A,,Clear,190,2012-11-06 00:55:00
7:15 PM,69.8,68.0,94,29.93,10.0,South,4.6,-,N/A,,Unknown,180,2012-11-06 01:15:00
7:35 PM,68.0,68.0,100,29.95,10.0,SSW,4.6,-,N/A,,Unknown,210,2012-11-06 01:35:00
7:55 PM,69.8,68.0,94,29.96,10.0,SW,5.8,-,N/A,,Unknown,220,2012-11-06 01:55:00
8:15 PM,69.8,68.0,94,29.95,10.0,SW,3.5,-,N/A,,Unknown,230,2012-11-06 02:15:00
8:35 PM,69.8,68.0,94,29.95,10.0,SW,3.5,-,N/A,Rain,Light Rain,220,2012-11-06 02:35:00
8:55 PM,69.8,69.8,100,29.95,10.0,SSW,9.2,-,N/A,,Scattered Clouds,210,2012-11-06 02:55:00
9:15 PM,69.8,69.8,100,29.96,10.0,SW,6.9,-,N/A,,Unknown,220,2012-11-06 03:15:00
9:35 PM,69.8,69.8,100,29.95,10.0,SSW,11.5,17.3,N/A,,Drizzle,210,2012-11-06 03:35:00
9:55 PM,69.8,69.8,100,29.96,10.0,West,8.1,-,N/A,,Unknown,260,2012-11-06 03:55:00
10:15 PM,68.0,68.0,100,29.95,10.0,Calm,Calm,-,N/A,,Unknown,0,2012-11-06 04:15:00
10:35 PM,68.0,68.0,100,29.95,10.0,West,4.6,-,N/A,,Clear,280,2012-11-06 04:35:00
10:55 PM,68.0,68.0,100,29.96,10.0,WNW,8.1,-,N/A,,Clear,290,2012-11-06 04:55:00
11:15 PM,66.2,64.4,94,29.95,10.0,West,6.9,-,N/A,,Clear,280,2012-11-06 05:15:00
11:35 PM,64.4,64.4,100,29.94,10.0,West,5.8,-,N/A,,Clear,280,2012-11-06 05:35:00
11:55 PM,64.4,64.4,100,29.94,10.0,West,3.5,-,N/A,,Clear,260,2012-11-06 05:55:00